Tacoma Narrows, WA
on Saturday, December 29, 2012

Saturday
Previous Day Next Day
Daily Summary
 ActualAverageRecord
Temperature
Mean Temperature °F / °C °F / °C  
Max Temperature 41°F / 5°C 43°F / 6°C 53°F / 11°C (1997)
Min Temperature 39°F / 4°C 36°F / 2°C 30°F / -1°C (2003)
Degree Days
Heating Degree Days 25    
Moisture
Dew Point 37°F / 3°C   
Average Humidity 90    
Maximum Humidity 93    
Minimum Humidity 73    
Precipitation
Precipitation 0.05 in / 1.27 cm in / cm in / cm ()
Wind
Wind Speed 1 mph / 2 km/h   
Max Wind Speed 6 mph / 10 km/h   
Max Gust Speed mph / km/h   
Visibility 8 miles / 13 kilometers   
Events Rain   
Averages and records for this station are not official NWS values.
Key: T is trace of precipitation, MM is missing value
Source: NWS Daily Summary
Seasonal Weather Averages
Time(PST)TemperatureDew PointHumidity Pressure Visibility Wind DirectionWind SpeedGust SpeedPrecipitationEvents Conditions
12:02 AM 39.2°F / 4.0°C 37.4°F / 3.0°C 93% 30.16 in / 1021.2 hPa 2.5 miles / 4.0 kilometers Calm Calm - N/A   Overcast
12:11 AM 39.2°F / 4.0°C 37.4°F / 3.0°C 93% 30.16 in / 1021.2 hPa 5.0 miles / 8.0 kilometers Calm Calm - N/A   Overcast
12:53 AM 39.9°F / 4.4°C 37.0°F / 2.8°C 89% 30.17 in / 1021.4 hPa 9.0 miles / 14.5 kilometers Calm Calm - N/A   Overcast
1:25 AM 39.2°F / 4.0°C 37.4°F / 3.0°C 93% 30.16 in / 1021.2 hPa 3.0 miles / 4.8 kilometers Calm Calm - N/A   Mostly Cloudy
1:28 AM 39.2°F / 4.0°C 37.4°F / 3.0°C 93% 30.16 in / 1021.2 hPa 2.5 miles / 4.0 kilometers Calm Calm - N/A   Mostly Cloudy
1:35 AM 39.2°F / 4.0°C 37.4°F / 3.0°C 93% 30.16 in / 1021.2 hPa 4.0 miles / 6.4 kilometers Calm Calm - N/A   Mostly Cloudy
1:53 AM 39.9°F / 4.4°C 37.9°F / 3.3°C 93% 30.18 in / 1021.8 hPa 7.0 miles / 11.3 kilometers Calm Calm - N/A   Overcast
2:53 AM 39.9°F / 4.4°C 37.9°F / 3.3°C 93% 30.19 in / 1022.1 hPa 6.0 miles / 9.7 kilometers Calm Calm - N/A   Overcast
3:53 AM 41.0°F / 5.0°C 39.0°F / 3.9°C 93% 30.18 in / 1021.9 hPa 10.0 miles / 16.1 kilometers Calm Calm - N/A   Overcast
4:06 AM 39.2°F / 4.0°C 37.4°F / 3.0°C 93% 30.17 in / 1021.6 hPa 10.0 miles / 16.1 kilometers SSW 4.6 mph / 7.4 km/h - N/A   Overcast
4:20 AM 39.2°F / 4.0°C 37.4°F / 3.0°C 93% 30.17 in / 1021.6 hPa 10.0 miles / 16.1 kilometers SSW 3.5 mph / 5.6 km/h - N/A   Overcast
4:27 AM 39.2°F / 4.0°C 37.4°F / 3.0°C 93% 30.17 in / 1021.6 hPa 10.0 miles / 16.1 kilometers South 3.5 mph / 5.6 km/h - N/A   Overcast
4:53 AM 39.9°F / 4.4°C 37.9°F / 3.3°C 93% 30.18 in / 1021.9 hPa 10.0 miles / 16.1 kilometers Calm Calm - N/A   Overcast
5:24 AM 39.2°F / 4.0°C 37.4°F / 3.0°C 93% 30.17 in / 1021.6 hPa 9.0 miles / 14.5 kilometers Calm Calm - N/A   Overcast
5:33 AM 39.2°F / 4.0°C 37.4°F / 3.0°C 93% 30.17 in / 1021.6 hPa 9.0 miles / 14.5 kilometers Calm Calm - N/A   Overcast
5:42 AM 39.2°F / 4.0°C 37.4°F / 3.0°C 93% 30.17 in / 1021.6 hPa 9.0 miles / 14.5 kilometers Calm Calm - N/A   Overcast
5:51 AM 39.2°F / 4.0°C 37.4°F / 3.0°C 93% 30.17 in / 1021.6 hPa 10.0 miles / 16.1 kilometers Calm Calm - N/A   Overcast
5:53 AM 39.9°F / 4.4°C 37.9°F / 3.3°C 93% 30.18 in / 1022.0 hPa 10.0 miles / 16.1 kilometers Calm Calm - N/A   Overcast
6:11 AM 39.2°F / 4.0°C 37.4°F / 3.0°C 93% 30.17 in / 1021.6 hPa 9.0 miles / 14.5 kilometers Calm Calm - N/A   Overcast
6:31 AM 41.0°F / 5.0°C 37.4°F / 3.0°C 87% 30.17 in / 1021.6 hPa 10.0 miles / 16.1 kilometers Calm Calm - N/A   Overcast
6:53 AM 39.9°F / 4.4°C 37.0°F / 2.8°C 89% 30.18 in / 1022.0 hPa 10.0 miles / 16.1 kilometers Calm Calm - N/A   Overcast
7:53 AM 39.9°F / 4.4°C 36.0°F / 2.2°C 86% 30.18 in / 1022.0 hPa 10.0 miles / 16.1 kilometers SSW 4.6 mph / 7.4 km/h - N/A   Overcast
8:53 AM 39.9°F / 4.4°C 34.0°F / 1.1°C 79% 30.20 in / 1022.5 hPa 10.0 miles / 16.1 kilometers SW 3.5 mph / 5.6 km/h - N/A   Overcast
9:53 AM 39.9°F / 4.4°C 33.1°F / 0.6°C 77% 30.21 in / 1022.8 hPa 10.0 miles / 16.1 kilometers SW 3.5 mph / 5.6 km/h - N/A   Overcast
10:53 AM 39.9°F / 4.4°C 34.0°F / 1.1°C 79% 30.19 in / 1022.1 hPa 10.0 miles / 16.1 kilometers SSE 4.6 mph / 7.4 km/h - 0.00 in / 0.0 cm   Overcast
11:53 AM 41.0°F / 5.0°C 34.0°F / 1.1°C 76% 30.17 in / 1021.7 hPa 10.0 miles / 16.1 kilometers Calm Calm - N/A   Overcast
12:53 PM 41.0°F / 5.0°C 33.1°F / 0.6°C 73% 30.17 in / 1021.4 hPa 10.0 miles / 16.1 kilometers South 4.6 mph / 7.4 km/h - N/A   Overcast
1:53 PM 41.0°F / 5.0°C 34.0°F / 1.1°C 76% 30.16 in / 1021.1 hPa 10.0 miles / 16.1 kilometers South 5.8 mph / 9.3 km/h - 0.00 in / 0.0 cm Rain Light Rain
2:53 PM 39.2°F / 4.0°C 35.6°F / 2.0°C 87% 30.15 in / 1020.9 hPa 10.0 miles / 16.1 kilometers SSW 5.8 mph / 9.3 km/h - N/A   Overcast
3:53 PM 39.9°F / 4.4°C 36.0°F / 2.2°C 86% 30.16 in / 1021.2 hPa 10.0 miles / 16.1 kilometers SSW 3.5 mph / 5.6 km/h - 0.01 in / 0.3 cm   Overcast
4:03 PM 39.2°F / 4.0°C 37.4°F / 3.0°C 93% 30.15 in / 1020.9 hPa 10.0 miles / 16.1 kilometers Calm Calm - N/A   Overcast
4:53 PM 39.9°F / 4.4°C 36.0°F / 2.2°C 86% 30.17 in / 1021.5 hPa 10.0 miles / 16.1 kilometers Calm Calm - N/A   Overcast
5:53 PM 39.0°F / 3.9°C 37.0°F / 2.8°C 93% 30.17 in / 1021.7 hPa 4.0 miles / 6.4 kilometers Calm Calm - 0.02 in / 0.5 cm Rain Light Rain
6:53 PM 39.9°F / 4.4°C 37.0°F / 2.8°C 89% 30.18 in / 1021.8 hPa 10.0 miles / 16.1 kilometers Calm Calm - 0.00 in / 0.0 cm   Overcast
7:05 PM 39.2°F / 4.0°C 37.4°F / 3.0°C 93% 30.17 in / 1021.6 hPa 9.0 miles / 14.5 kilometers Calm Calm - N/A   Overcast
7:16 PM 39.2°F / 4.0°C 37.4°F / 3.0°C 93% 30.17 in / 1021.6 hPa 7.0 miles / 11.3 kilometers Calm Calm - N/A   Overcast
7:53 PM 39.9°F / 4.4°C 37.0°F / 2.8°C 89% 30.18 in / 1022.0 hPa 10.0 miles / 16.1 kilometers Calm Calm - N/A   Overcast
8:17 PM 39.2°F / 4.0°C 37.4°F / 3.0°C 93% 30.18 in / 1021.9 hPa 8.0 miles / 12.9 kilometers Calm Calm - N/A   Overcast
8:39 PM 39.2°F / 4.0°C 37.4°F / 3.0°C 93% 30.18 in / 1021.9 hPa 8.0 miles / 12.9 kilometers Calm Calm - N/A   Overcast
8:53 PM 39.9°F / 4.4°C 37.0°F / 2.8°C 89% 30.20 in / 1022.5 hPa 8.0 miles / 12.9 kilometers Calm Calm - N/A   Overcast
9:13 PM 39.2°F / 4.0°C 37.4°F / 3.0°C 93% 30.19 in / 1022.2 hPa 6.0 miles / 9.7 kilometers Calm Calm - 0.01 in / 0.3 cm Rain Light Rain
9:53 PM 39.9°F / 4.4°C 37.0°F / 2.8°C 89% 30.21 in / 1023.0 hPa 9.0 miles / 14.5 kilometers Calm Calm - 0.01 in / 0.3 cm   Overcast
10:53 PM 39.9°F / 4.4°C 37.0°F / 2.8°C 89% 30.23 in / 1023.6 hPa 10.0 miles / 16.1 kilometers Calm Calm - N/A   Overcast
11:02 PM 39.2°F / 4.0°C 37.4°F / 3.0°C 93% 30.22 in / 1023.2 hPa 9.0 miles / 14.5 kilometers Calm Calm - N/A   Overcast
11:41 PM 39.2°F / 4.0°C 37.4°F / 3.0°C 93% 30.23 in / 1023.6 hPa 3.0 miles / 4.8 kilometers NW 3.5 mph / 5.6 km/h - 0.00 in / 0.0 cm Rain Light Rain
11:49 PM 39.2°F / 4.0°C 37.4°F / 3.0°C 93% 30.23 in / 1023.6 hPa 2.5 miles / 4.0 kilometers Calm Calm - 0.00 in / 0.0 cm Rain Light Rain
11:53 PM 39.9°F / 4.4°C 37.0°F / 2.8°C 89% 30.24 in / 1023.8 hPa 3.0 miles / 4.8 kilometers Calm Calm - 0.01 in / 0.3 cm Rain Light Rain
11:59 PM 39.2°F / 4.0°C 37.4°F / 3.0°C 93% 30.23 in / 1023.6 hPa 3.0 miles / 4.8 kilometers North 3.5 mph / 5.6 km/h - 0.00 in / 0.0 cm Rain Light Rain
Moon Phase
Dec. 29 Jan. 04 Jan. 11 Jan. 18 Jan. 26
Sunrise:07:57 AM (PST) Moon Rise:06:14 PM (PST)12/29
Sunset:04:28 PM (PST) Moon Set:08:27 AM (PST)12/29

Copyright © 2014 The Weather Underground, Inc.